Location: Voyageurs National Park
(48.5020°N, 92.9292°W)
Time: 16:37:56
(UTC-06:00)

FAST Rocket - Pass Details

Date: 19 January 2018
Orbit: 346 x 3354 km, 83.0° (Epoch: 22 February)

Event Time Altitude Azimuth Distance (km) Brightness Sun altitude
Rises 06:14:30 0° 190° (S) 2,151 7.9 -16.3°
Reaches altitude 10° 06:16:12 10° 192° (SSW) 1,367 6.9 -16.1°
Maximum altitude 06:18:56 80° 279° (W) 448 4.2 -15.6°
Drops below altitude 10° 06:22:51 10° 8° (N) 1,937 7.5 -15.0°
Sets 06:25:39 0° 9° (N) 3,203 8.7 -14.5°
